AUA18Y LOWW-EDDM

Flight info

Callsign AUA18Y
Flight time 0h 37m
Altitude 30000
Route SOVIL DCT SITNI DCT BAGSI DCT MATIG DCT AMADI Q113 NAPSA NAPSA1B
Aircraft E195/M-SDE3GILORVW/S

Departure

Time 2026-05-05 12:12
Airport Vienna International Airport (LOWW)

Arrival

Time 2026-05-05 12:49
Airport Munich Airport (EDDM)
Time Latitude Longitude Altitude Speed Heading
2026-05-05 11:57 48.11612 16.57135 607 ft 0 kts 26°
2026-05-05 12:08 48.11613 16.57136 607 ft 0 kts 26°
2026-05-05 12:08 48.11626 16.57145 607 ft 3 kts 25°
2026-05-05 12:08 48.11653 16.57168 607 ft 5 kts 39°
2026-05-05 12:09 48.11654 16.57219 607 ft 6 kts 118°
2026-05-05 12:09 48.11633 16.57280 607 ft 7 kts 117°
2026-05-05 12:09 48.11603 16.57374 607 ft 13 kts 116°
2026-05-05 12:09 48.11552 16.57528 606 ft 18 kts 117°
2026-05-05 12:10 48.11520 16.57666 606 ft 11 kts 80°
2026-05-05 12:10 48.11586 16.57702 606 ft 12 kts 346°
2026-05-05 12:10 48.11689 16.57661 607 ft 19 kts 345°
2026-05-05 12:10 48.11811 16.57611 607 ft 9 kts 354°
2026-05-05 12:11 48.11855 16.57659 606 ft 9 kts 76°
2026-05-05 12:11 48.11852 16.57788 606 ft 15 kts 114°
2026-05-05 12:11 48.11753 16.57911 606 ft 22 kts 165°
2026-05-05 12:11 48.11365 16.58074 607 ft 99 kts 163°
2026-05-05 12:12 48.10474 16.58449 709 ft 156 kts 163°
2026-05-05 12:12 48.09395 16.58888 1416 ft 172 kts 166°
2026-05-05 12:12 48.08297 16.59117 2523 ft 161 kts 177°
2026-05-05 12:12 48.07184 16.58666 3080 ft 182 kts 210°
2026-05-05 12:13 48.06097 16.57475 3622 ft 206 kts 216°
2026-05-05 12:13 48.04944 16.55949 3996 ft 240 kts 220°
2026-05-05 12:13 48.03715 16.54124 4657 ft 259 kts 223°
2026-05-05 12:13 48.02479 16.52173 5623 ft 264 kts 225°
2026-05-05 12:14 48.01256 16.50183 6710 ft 263 kts 226°
2026-05-05 12:14 48.00044 16.48182 7743 ft 263 kts 226°
2026-05-05 12:14 47.98840 16.46180 8670 ft 266 kts 227°
2026-05-05 12:14 47.97965 16.43746 9522 ft 276 kts 257°
2026-05-05 12:15 47.97948 16.40858 10360 ft 284 kts 271°
2026-05-05 12:15 47.98068 16.37941 11098 ft 292 kts 271°
2026-05-05 12:15 47.98191 16.34866 11749 ft 304 kts 270°
2026-05-05 12:15 47.98317 16.31662 12401 ft 315 kts 270°
2026-05-05 12:16 47.98445 16.28380 13150 ft 322 kts 270°
2026-05-05 12:16 47.98575 16.25037 13998 ft 325 kts 271°
2026-05-05 12:16 47.98703 16.21709 14861 ft 327 kts 271°
2026-05-05 12:16 47.98831 16.18350 15680 ft 330 kts 271°
2026-05-05 12:17 47.98962 16.14907 16481 ft 334 kts 271°
2026-05-05 12:17 47.99135 16.11436 17239 ft 339 kts 275°
2026-05-05 12:17 47.99409 16.07948 17990 ft 343 kts 275°
2026-05-05 12:17 47.99683 16.04410 18749 ft 347 kts 275°
2026-05-05 12:18 47.99958 16.00853 19514 ft 351 kts 275°
2026-05-05 12:18 48.00235 15.97238 20256 ft 355 kts 275°
2026-05-05 12:18 48.00516 15.93543 21000 ft 359 kts 275°
2026-05-05 12:18 48.00796 15.89858 21729 ft 362 kts 275°
2026-05-05 12:19 48.01077 15.86152 22423 ft 366 kts 275°
2026-05-05 12:19 48.01364 15.82331 23120 ft 370 kts 275°
2026-05-05 12:19 48.01651 15.78513 23812 ft 374 kts 275°
2026-05-05 12:19 48.01939 15.74673 24516 ft 377 kts 275°
2026-05-05 12:20 48.02226 15.70799 25202 ft 380 kts 275°
2026-05-05 12:20 48.02517 15.66848 25868 ft 383 kts 275°
2026-05-05 12:20 48.02806 15.62918 26513 ft 386 kts 276°
2026-05-05 12:20 48.03097 15.58934 27176 ft 389 kts 276°
2026-05-05 12:21 48.03389 15.54931 27798 ft 392 kts 276°
2026-05-05 12:21 48.03684 15.50873 28428 ft 395 kts 276°
2026-05-05 12:21 48.03978 15.46781 29047 ft 398 kts 276°
2026-05-05 12:21 48.04274 15.42672 29637 ft 400 kts 276°
2026-05-05 12:22 48.04564 15.38603 29801 ft 403 kts 275°
2026-05-05 12:22 48.04695 15.34374 29842 ft 417 kts 270°
2026-05-05 12:22 48.04765 15.29926 29837 ft 430 kts 271°
2026-05-05 12:22 48.04835 15.25517 29831 ft 432 kts 271°
2026-05-05 12:23 48.04972 15.16600 29816 ft 430 kts 271°
2026-05-05 12:23 48.05102 15.07705 29809 ft 429 kts 271°
2026-05-05 12:24 48.05225 14.98803 29805 ft 428 kts 271°
2026-05-05 12:24 48.05341 14.89969 29796 ft 428 kts 271°
2026-05-05 12:25 48.05444 14.81055 29799 ft 429 kts 270°
2026-05-05 12:25 48.05516 14.72179 29801 ft 428 kts 270°
2026-05-05 12:26 48.05584 14.63310 29798 ft 429 kts 270°
2026-05-05 12:26 48.05644 14.54419 29805 ft 429 kts 270°
2026-05-05 12:27 48.05698 14.45553 29803 ft 430 kts 269°
2026-05-05 12:27 48.05745 14.36717 29790 ft 421 kts 269°
2026-05-05 12:28 48.05782 14.28431 29793 ft 413 kts 269°
2026-05-05 12:28 48.05815 14.19816 29515 ft 417 kts 269°
2026-05-05 12:29 48.05830 14.15542 29074 ft 414 kts 269°
2026-05-05 12:29 48.05842 14.11236 28612 ft 411 kts 268°
2026-05-05 12:29 48.05853 14.07027 28181 ft 409 kts 269°
2026-05-05 12:29 48.05889 14.02776 27964 ft 407 kts 269°
2026-05-05 12:30 48.05931 13.98595 27620 ft 406 kts 269°
2026-05-05 12:30 48.05980 13.94392 27277 ft 406 kts 269°
2026-05-05 12:30 48.05949 13.90142 26286 ft 406 kts 267°
2026-05-05 12:30 48.05907 13.86022 25966 ft 401 kts 268°
2026-05-05 12:31 48.05892 13.81859 25499 ft 400 kts 268°
2026-05-05 12:31 48.05887 13.77737 25059 ft 399 kts 268°
2026-05-05 12:31 48.05884 13.73598 24609 ft 397 kts 268°
2026-05-05 12:31 48.05881 13.69543 24178 ft 395 kts 268°
2026-05-05 12:32 48.05876 13.65454 23748 ft 394 kts 268°
2026-05-05 12:32 48.05870 13.61387 23318 ft 393 kts 268°
2026-05-05 12:32 48.05864 13.57298 22887 ft 390 kts 268°
2026-05-05 12:32 48.05885 13.53290 22459 ft 388 kts 272°
2026-05-05 12:33 48.06112 13.49316 22045 ft 385 kts 273°
2026-05-05 12:33 48.06335 13.45321 21610 ft 383 kts 273°
2026-05-05 12:33 48.06549 13.41399 21198 ft 380 kts 273°
2026-05-05 12:33 48.06759 13.37500 20780 ft 378 kts 273°
2026-05-05 12:34 48.06964 13.33658 20371 ft 375 kts 272°
2026-05-05 12:34 48.07169 13.29772 19956 ft 373 kts 272°
2026-05-05 12:34 48.07371 13.25948 19549 ft 370 kts 272°
2026-05-05 12:34 48.07571 13.22107 19142 ft 368 kts 271°
2026-05-05 12:35 48.07768 13.18325 18740 ft 365 kts 271°
2026-05-05 12:35 48.07962 13.14566 18337 ft 363 kts 271°
2026-05-05 12:35 48.08155 13.10800 17934 ft 360 kts 271°
2026-05-05 12:35 48.08344 13.07077 17539 ft 359 kts 271°
2026-05-05 12:36 48.08530 13.03396 17146 ft 356 kts 271°
2026-05-05 12:36 48.08716 12.99705 16754 ft 354 kts 271°
2026-05-05 12:36 48.08897 12.96070 16367 ft 353 kts 271°
2026-05-05 12:36 48.09077 12.92444 15978 ft 350 kts 272°
2026-05-05 12:37 48.09365 12.88841 15595 ft 349 kts 276°
2026-05-05 12:37 48.09706 12.85311 15210 ft 347 kts 276°
2026-05-05 12:37 48.10049 12.81714 14818 ft 344 kts 276°
2026-05-05 12:37 48.10381 12.78205 14442 ft 341 kts 276°
2026-05-05 12:38 48.10710 12.74717 14063 ft 339 kts 276°
2026-05-05 12:38 48.11037 12.71237 13691 ft 337 kts 276°
2026-05-05 12:38 48.11358 12.67803 13326 ft 335 kts 276°
2026-05-05 12:38 48.11678 12.64375 12959 ft 334 kts 276°
2026-05-05 12:39 48.11998 12.60934 12590 ft 334 kts 276°
2026-05-05 12:39 48.12316 12.57499 12223 ft 333 kts 276°
2026-05-05 12:39 48.12632 12.54077 11873 ft 332 kts 276°
2026-05-05 12:39 48.12946 12.50674 11530 ft 330 kts 276°
2026-05-05 12:40 48.13254 12.47315 11178 ft 325 kts 276°
2026-05-05 12:40 48.13557 12.43996 10820 ft 318 kts 276°
2026-05-05 12:40 48.13859 12.40731 10455 ft 312 kts 277°
2026-05-05 12:40 48.14639 12.37781 9853 ft 312 kts 305°
2026-05-05 12:41 48.16132 12.35505 9091 ft 305 kts 320°
2026-05-05 12:41 48.17815 12.33643 8342 ft 297 kts 323°
2026-05-05 12:41 48.19477 12.31873 7601 ft 290 kts 323°
2026-05-05 12:41 48.21086 12.30149 7078 ft 280 kts 323°
2026-05-05 12:42 48.22658 12.28459 6649 ft 278 kts 323°
2026-05-05 12:42 48.24214 12.26772 6287 ft 274 kts 323°
2026-05-05 12:42 48.25743 12.25087 5914 ft 270 kts 321°
2026-05-05 12:42 48.27221 12.23371 5539 ft 267 kts 323°
2026-05-05 12:43 48.28688 12.21742 5172 ft 264 kts 323°
2026-05-05 12:43 48.30165 12.20099 4881 ft 259 kts 323°
2026-05-05 12:43 48.31594 12.18502 4986 ft 260 kts 323°
2026-05-05 12:43 48.33057 12.16865 4986 ft 264 kts 323°
2026-05-05 12:44 48.34535 12.15211 4984 ft 264 kts 323°
2026-05-05 12:44 48.35997 12.13577 4982 ft 264 kts 323°
2026-05-05 12:44 48.37259 12.11623 4978 ft 258 kts 296°
2026-05-05 12:44 48.37522 12.09092 4993 ft 242 kts 257°
2026-05-05 12:45 48.36901 12.06792 4822 ft 234 kts 249°
2026-05-05 12:45 48.36447 12.04488 4551 ft 231 kts 257°
2026-05-05 12:45 48.36159 12.02095 4257 ft 229 kts 261°
2026-05-05 12:45 48.35948 11.99759 3973 ft 226 kts 263°
2026-05-05 12:46 48.35768 11.97498 3708 ft 209 kts 264°
2026-05-05 12:46 48.35610 11.95425 3473 ft 186 kts 264°
2026-05-05 12:46 48.35471 11.93590 3188 ft 170 kts 265°
2026-05-05 12:46 48.35344 11.91917 2936 ft 155 kts 265°
2026-05-05 12:47 48.35228 11.90372 2722 ft 141 kts 265°
2026-05-05 12:47 48.35121 11.88936 2552 ft 138 kts 264°
2026-05-05 12:47 48.35012 11.87492 2391 ft 140 kts 264°
2026-05-05 12:47 48.34901 11.86025 2216 ft 141 kts 263°
2026-05-05 12:48 48.34790 11.84563 2034 ft 140 kts 264°
2026-05-05 12:48 48.34680 11.83119 1854 ft 139 kts 263°
2026-05-05 12:48 48.34565 11.81694 1665 ft 139 kts 265°
2026-05-05 12:48 48.34460 11.80257 1505 ft 138 kts 265°
2026-05-05 12:49 48.34361 11.78907 1481 ft 108 kts 263°
2026-05-05 12:49 48.34292 11.78030 1484 ft 63 kts 263°
2026-05-05 12:49 48.34260 11.77586 1486 ft 36 kts 265°
2026-05-05 12:49 48.34259 11.77289 1486 ft 22 kts 283°
2026-05-05 12:50 48.34311 11.77079 1487 ft 21 kts 292°
2026-05-05 12:50 48.34364 11.76890 1487 ft 16 kts 293°
2026-05-05 12:50 48.34401 11.76765 1487 ft 6 kts 298°
2026-05-05 12:50 48.34408 11.76749 1487 ft 0 kts 304°
2026-05-05 12:51 48.34413 11.76738 1487 ft 2 kts 306°
2026-05-05 12:51 48.34446 11.76711 1487 ft 9 kts 346°
2026-05-05 12:51 48.34530 11.76692 1487 ft 10 kts 357°
2026-05-05 12:51 48.34573 11.76746 1486 ft 9 kts 83°
2026-05-05 12:52 48.34583 11.76869 1486 ft 15 kts 86°
2026-05-05 12:52 48.34598 11.77067 1486 ft 22 kts 84°
2026-05-05 12:52 48.34619 11.77336 1485 ft 29 kts 84°
2026-05-05 12:52 48.34644 11.77652 1484 ft 30 kts 82°
2026-05-05 12:53 48.34668 11.77971 1484 ft 31 kts 83°
2026-05-05 12:53 48.34692 11.78295 1483 ft 31 kts 84°
2026-05-05 12:53 48.34718 11.78622 1482 ft 31 kts 84°
2026-05-05 12:53 48.34744 11.78952 1480 ft 31 kts 84°
2026-05-05 12:54 48.34782 11.79459 1478 ft 12 kts 84°
2026-05-05 12:54 48.34795 11.79532 1478 ft 5 kts 55°
2026-05-05 12:54 48.34835 11.79559 1478 ft 7 kts 360°
2026-05-05 12:55 48.34890 11.79552 1477 ft 8 kts 355°
2026-05-05 12:55 48.34949 11.79543 1477 ft 7 kts
2026-05-05 12:55 48.34977 11.79562 1477 ft 0 kts 52°
2026-05-05 12:55 48.34982 11.79577 1477 ft 2 kts 74°
2026-05-05 12:56 48.35000 11.79643 1477 ft 10 kts 44°
2026-05-05 12:56 48.35074 11.79661 1476 ft 10 kts 13°
2026-05-05 12:56 48.35103 11.79744 1476 ft 10 kts 83°
2026-05-05 12:56 48.35115 11.79883 1475 ft 15 kts 83°
2026-05-05 12:57 48.35125 11.80029 1475 ft 13 kts 83°
2026-05-05 12:57 48.35139 11.80159 1475 ft 10 kts 68°
2026-05-05 12:57 48.35176 11.80193 1475 ft 5 kts 350°
2026-05-05 12:57 48.35240 11.80181 1475 ft 13 kts 354°
2026-05-05 12:58 48.35358 11.80160 1474 ft 20 kts 351°
2026-05-05 12:58 48.35510 11.80122 1473 ft 22 kts 354°
2026-05-05 12:58 48.35651 11.80096 1471 ft 11 kts 351°
2026-05-05 12:58 48.35695 11.80083 1471 ft 0 kts 347°
2026-05-05 12:59 48.35710 11.80074 1471 ft 3 kts 317°
2026-05-05 12:59 48.35714 11.80036 1471 ft 4 kts 270°
2026-05-05 12:59 48.35710 11.79980 1471 ft 6 kts 264°
2026-05-05 13:00 48.35708 11.79951 1471 ft 0 kts 263°